contact:dominique.lefevre@mio.osupytheas.fr, maurice.libes@osupytheas.fr, didier.mallarino@osupytheas.fr
Project:EMSO http://www.emso-fr.org/EMSO-France
Depth: 2436.0 m
Title:EMSO Ligure Ouest : Data MII capteur MICROCAT
DateTime_Computer,Latitude,Longitude,Temperature,Conductivity,Pressure,DateTime_Instrument
DateTime_Computer,Latitude,Longitude,degC,S m-1,dbar,DateTime_Instrument
2023-09-15T00:01:48Z,42.805,6.029,13.3035,4.60135,2470.707,2023-9-15T02:04:10Z
2023-09-15T00:04:51Z,42.805,6.029,13.3038,4.60140,2470.717,2023-9-15T02:07:13Z
2023-09-15T00:07:55Z,42.805,6.029,13.3041,4.60144,2470.717,2023-9-15T02:10:16Z
2023-09-15T00:10:58Z,42.805,6.029,13.3055,4.60138,2470.693,2023-9-15T02:13:20Z
2023-09-15T00:14:01Z,42.805,6.029,13.3046,4.60133,2470.754,2023-9-15T02:16:23Z
2023-09-15T00:17:04Z,42.805,6.029,13.3036,4.60135,2470.693,2023-9-15T02:19:26Z
2023-09-15T00:20:07Z,42.805,6.029,13.3044,4.60142,2470.693,2023-9-15T02:22:29Z
2023-09-15T00:23:10Z,42.805,6.029,13.3045,4.60117,2470.67,2023-9-15T02:25:32Z
2023-09-15T00:26:13Z,42.805,6.029,13.3037,4.60132,2470.693,2023-9-15T02:28:35Z
2023-09-15T00:29:16Z,42.805,6.029,13.3043,4.60145,2470.684,2023-9-15T02:31:38Z
2023-09-15T00:32:19Z,42.805,6.029,13.3036,4.60123,2470.684,2023-9-15T02:34:41Z
2023-09-15T00:35:22Z,42.805,6.029,13.3039,4.60137,2470.67,2023-9-15T02:37:44Z
2023-09-15T00:38:25Z,42.805,6.029,13.3036,4.60132,2470.661,2023-9-15T02:40:47Z
2023-09-15T00:41:28Z,42.805,6.029,13.3039,4.60121,2470.684,2023-9-15T02:43:50Z
2023-09-15T00:44:32Z,42.805,6.029,13.3036,4.60138,2470.693,2023-9-15T02:46:53Z
2023-09-15T00:47:35Z,42.805,6.029,13.3039,4.60122,2470.67,2023-9-15T02:49:57Z
2023-09-15T00:50:38Z,42.805,6.029,13.3035,4.60121,2470.67,2023-9-15T02:53:00Z
2023-09-15T00:53:41Z,42.805,6.029,13.3036,4.60114,2470.67,2023-9-15T02:56:03Z
2023-09-15T00:56:44Z,42.805,6.029,13.3034,4.60129,2470.693,2023-9-15T02:59:06Z
2023-09-15T00:59:47Z,42.805,6.029,13.3036,4.60146,2470.684,2023-9-15T03:02:09Z
2023-09-15T01:02:50Z,42.805,6.029,13.3036,4.60117,2470.693,2023-9-15T03:05:12Z
2023-09-15T01:05:53Z,42.805,6.029,13.3039,4.60118,2470.684,2023-9-15T03:08:15Z
2023-09-15T01:08:56Z,42.805,6.029,13.3034,4.60128,2470.693,2023-9-15T03:11:18Z
2023-09-15T01:11:59Z,42.805,6.029,13.3043,4.60137,2470.67,2023-9-15T03:14:21Z
2023-09-15T01:15:02Z,42.805,6.029,13.3043,4.60135,2470.646,2023-9-15T03:17:24Z
2023-09-15T01:18:05Z,42.805,6.029,13.3032,4.60118,2470.661,2023-9-15T03:20:27Z
2023-09-15T01:21:08Z,42.805,6.029,13.3031,4.60121,2470.646,2023-9-15T03:23:30Z
2023-09-15T01:24:12Z,42.805,6.029,13.3037,4.60141,2470.67,2023-9-15T03:26:34Z
2023-09-15T01:27:15Z,42.805,6.029,13.3052,4.60127,2470.661,2023-9-15T03:29:37Z
2023-09-15T01:30:18Z,42.805,6.029,13.3043,4.60135,2470.624,2023-9-15T03:32:40Z
2023-09-15T01:33:21Z,42.805,6.029,13.3041,4.60134,2470.637,2023-9-15T03:35:43Z
2023-09-15T01:36:24Z,42.805,6.029,13.3037,4.60125,2470.646,2023-9-15T03:38:46Z
2023-09-15T01:39:27Z,42.805,6.029,13.3035,4.60127,2470.693,2023-9-15T03:41:49Z
2023-09-15T01:42:30Z,42.805,6.029,13.3040,4.60135,2470.646,2023-9-15T03:44:52Z
2023-09-15T01:45:33Z,42.805,6.029,13.3043,4.60135,2470.646,2023-9-15T03:47:55Z
2023-09-15T01:48:36Z,42.805,6.029,13.3043,4.60121,2470.661,2023-9-15T03:50:58Z
2023-09-15T01:51:39Z,42.805,6.029,13.3043,4.60131,2470.67,2023-9-15T03:54:01Z
2023-09-15T01:54:42Z,42.805,6.029,13.3033,4.60116,2470.684,2023-9-15T03:57:04Z
2023-09-15T01:57:45Z,42.805,6.029,13.3040,4.60142,2470.646,2023-9-15T04:00:07Z
2023-09-15T02:00:49Z,42.805,6.029,13.3034,4.60131,2470.67,2023-9-15T04:03:10Z
2023-09-15T02:03:52Z,42.805,6.029,13.3036,4.60137,2470.717,2023-9-15T04:06:14Z
2023-09-15T02:06:55Z,42.805,6.029,13.3030,4.60127,2470.661,2023-9-15T04:09:17Z
2023-09-15T02:09:58Z,42.805,6.029,13.3041,4.60142,2470.67,2023-9-15T04:12:20Z
2023-09-15T02:13:01Z,42.805,6.029,13.3039,4.60130,2470.661,2023-9-15T04:15:23Z
2023-09-15T02:16:04Z,42.805,6.029,13.3039,4.60140,2470.646,2023-9-15T04:18:26Z
2023-09-15T02:19:07Z,42.805,6.029,13.3040,4.60133,2470.684,2023-9-15T04:21:29Z
2023-09-15T02:22:10Z,42.805,6.029,13.3041,4.60124,2470.661,2023-9-15T04:24:32Z
2023-09-15T02:25:13Z,42.805,6.029,13.3047,4.60137,2470.684,2023-9-15T04:27:35Z
2023-09-15T02:28:16Z,42.805,6.029,13.3045,4.60145,2470.684,2023-9-15T04:30:38Z
2023-09-15T02:31:19Z,42.805,6.029,13.3043,4.60137,2470.684,2023-9-15T04:33:41Z
2023-09-15T02:34:22Z,42.805,6.029,13.3041,4.60142,2470.661,2023-9-15T04:36:44Z
2023-09-15T02:37:26Z,42.805,6.029,13.3043,4.60132,2470.693,2023-9-15T04:39:47Z
2023-09-15T02:40:29Z,42.805,6.029,13.3033,4.60120,2470.661,2023-9-15T04:42:51Z
2023-09-15T02:43:32Z,42.805,6.029,13.3046,4.60132,2470.661,2023-9-15T04:45:54Z
2023-09-15T02:46:35Z,42.805,6.029,13.3034,4.60126,2470.646,2023-9-15T04:48:57Z
2023-09-15T02:49:38Z,42.805,6.029,13.3048,4.60128,2470.646,2023-9-15T04:52:00Z
2023-09-15T02:52:41Z,42.805,6.029,13.3033,4.60122,2470.693,2023-9-15T04:55:03Z
2023-09-15T02:55:44Z,42.805,6.029,13.3036,4.60132,2470.661,2023-9-15T04:58:06Z
2023-09-15T02:58:47Z,42.805,6.029,13.3048,4.60132,2470.67,2023-9-15T05:01:09Z
2023-09-15T03:01:50Z,42.805,6.029,13.3043,4.60139,2470.707,2023-9-15T05:04:12Z
2023-09-15T03:04:53Z,42.805,6.029,13.3038,4.60140,2470.67,2023-9-15T05:07:15Z
2023-09-15T03:07:56Z,42.805,6.029,13.3038,4.60135,2470.67,2023-9-15T05:10:18Z
2023-09-15T03:10:59Z,42.805,6.029,13.3036,4.60125,2470.67,2023-9-15T05:13:21Z
2023-09-15T03:14:02Z,42.805,6.029,13.3040,4.60126,2470.633,2023-9-15T05:16:24Z
2023-09-15T03:17:06Z,42.805,6.029,13.3036,4.60117,2470.646,2023-9-15T05:19:27Z
2023-09-15T03:20:09Z,42.805,6.029,13.3047,4.60124,2470.646,2023-9-15T05:22:31Z
2023-09-15T03:23:12Z,42.805,6.029,13.3034,4.60132,2470.67,2023-9-15T05:25:34Z
2023-09-15T03:26:15Z,42.805,6.029,13.3044,4.60135,2470.646,2023-9-15T05:28:37Z
2023-09-15T03:29:18Z,42.805,6.029,13.3048,4.60137,2470.656,2023-9-15T05:31:40Z
2023-09-15T03:32:21Z,42.805,6.029,13.3039,4.60151,2470.646,2023-9-15T05:34:43Z
2023-09-15T03:35:24Z,42.805,6.029,13.3046,4.60132,2470.693,2023-9-15T05:37:46Z
2023-09-15T03:38:27Z,42.805,6.029,13.3045,4.60140,2470.67,2023-9-15T05:40:49Z
2023-09-15T03:41:30Z,42.805,6.029,13.3035,4.60119,2470.693,2023-9-15T05:43:52Z
2023-09-15T03:44:33Z,42.805,6.029,13.3052,4.60142,2470.684,2023-9-15T05:46:55Z
2023-09-15T03:47:36Z,42.805,6.029,13.3046,4.60145,2470.707,2023-9-15T05:49:58Z
2023-09-15T03:50:39Z,42.805,6.029,13.3037,4.60124,2470.684,2023-9-15T05:53:01Z
2023-09-15T03:53:43Z,42.805,6.029,13.3039,4.60122,2470.661,2023-9-15T05:56:04Z
2023-09-15T03:56:46Z,42.805,6.029,13.3034,4.60123,2470.67,2023-9-15T05:59:08Z
2023-09-15T03:59:49Z,42.805,6.029,13.3042,4.60128,2470.67,2023-9-15T06:02:11Z
2023-09-15T04:02:52Z,42.805,6.029,13.3041,4.60137,2470.693,2023-9-15T06:05:14Z
2023-09-15T04:05:55Z,42.805,6.029,13.3032,4.60143,2470.707,2023-9-15T06:08:17Z
2023-09-15T04:08:58Z,42.805,6.029,13.3034,4.60133,2470.646,2023-9-15T06:11:20Z
2023-09-15T04:12:01Z,42.805,6.029,13.3036,4.60144,2470.717,2023-9-15T06:14:23Z
2023-09-15T04:15:04Z,42.805,6.029,13.3043,4.60129,2470.707,2023-9-15T06:17:26Z
2023-09-15T04:18:07Z,42.805,6.029,13.3039,4.60115,2470.707,2023-9-15T06:20:29Z
2023-09-15T04:21:10Z,42.805,6.029,13.3039,4.60125,2470.67,2023-9-15T06:23:32Z
2023-09-15T04:24:13Z,42.805,6.029,13.3040,4.60135,2470.73,2023-9-15T06:26:35Z
2023-09-15T04:27:16Z,42.805,6.029,13.3035,4.60119,2470.693,2023-9-15T06:29:38Z
2023-09-15T04:30:17Z,42.805,6.029,13.3036,4.60125,2470.73,2023-9-15T06:32:39Z
2023-09-15T04:33:20Z,42.805,6.029,13.3034,4.60119,2470.717,2023-9-15T06:35:42Z
2023-09-15T04:36:24Z,42.805,6.029,13.3040,4.60132,2470.717,2023-9-15T06:38:46Z
2023-09-15T04:39:27Z,42.805,6.029,13.3037,4.60136,2470.73,2023-9-15T06:41:49Z
2023-09-15T04:42:30Z,42.805,6.029,13.3045,4.60135,2470.717,2023-9-15T06:44:52Z
2023-09-15T04:45:33Z,42.805,6.029,13.3038,4.60127,2470.754,2023-9-15T06:47:55Z
2023-09-15T04:48:36Z,42.805,6.029,13.3041,4.60129,2470.73,2023-9-15T06:50:58Z
2023-09-15T04:51:39Z,42.805,6.029,13.3039,4.60132,2470.717,2023-9-15T06:54:01Z
2023-09-15T04:54:42Z,42.805,6.029,13.3031,4.60137,2470.763,2023-9-15T06:57:04Z
2023-09-15T04:57:45Z,42.805,6.029,13.3044,4.60144,2470.717,2023-9-15T07:00:07Z
2023-09-15T05:00:48Z,42.805,6.029,13.3034,4.60124,2470.754,2023-9-15T07:03:10Z
2023-09-15T05:03:51Z,42.805,6.029,13.3034,4.60112,2470.754,2023-9-15T07:06:13Z
2023-09-15T05:06:54Z,42.805,6.029,13.3036,4.60128,2470.754,2023-9-15T07:09:16Z
2023-09-15T05:09:57Z,42.805,6.029,13.3045,4.60123,2470.73,2023-9-15T07:12:19Z
2023-09-15T05:13:01Z,42.805,6.029,13.3048,4.60137,2470.74,2023-9-15T07:15:23Z
2023-09-15T05:16:04Z,42.805,6.029,13.3041,4.60130,2470.74,2023-9-15T07:18:26Z
2023-09-15T05:19:07Z,42.805,6.029,13.3051,4.60144,2470.74,2023-9-15T07:21:29Z
2023-09-15T05:22:10Z,42.805,6.029,13.3036,4.60117,2470.763,2023-9-15T07:24:32Z
2023-09-15T05:25:13Z,42.805,6.029,13.3042,4.60128,2470.787,2023-9-15T07:27:35Z
2023-09-15T05:28:16Z,42.805,6.029,13.3039,4.60134,2470.777,2023-9-15T07:30:38Z
2023-09-15T05:31:19Z,42.805,6.029,13.3043,4.60136,2470.824,2023-9-15T07:33:41Z
2023-09-15T05:34:22Z,42.805,6.029,13.3034,4.60144,2470.74,2023-9-15T07:36:44Z
2023-09-15T05:37:25Z,42.805,6.029,13.3032,4.60148,2470.763,2023-9-15T07:39:47Z
2023-09-15T05:40:28Z,42.805,6.029,13.3048,4.60122,2470.763,2023-9-15T07:42:50Z
2023-09-15T05:43:31Z,42.805,6.029,13.3041,4.60129,2470.8,2023-9-15T07:45:53Z
2023-09-15T05:46:34Z,42.805,6.029,13.3039,4.60133,2470.787,2023-9-15T07:48:56Z
2023-09-15T05:49:38Z,42.805,6.029,13.3043,4.60151,2470.763,2023-9-15T07:52:00Z
2023-09-15T05:52:41Z,42.805,6.029,13.3037,4.60138,2470.777,2023-9-15T07:55:03Z
2023-09-15T05:55:44Z,42.805,6.029,13.3042,4.60135,2470.787,2023-9-15T07:58:06Z
2023-09-15T05:58:47Z,42.805,6.029,13.3051,4.60152,2470.754,2023-9-15T08:01:09Z
2023-09-15T06:01:50Z,42.805,6.029,13.3044,4.60148,2470.777,2023-9-15T08:04:12Z
2023-09-15T06:04:53Z,42.805,6.029,13.3039,4.60127,2470.787,2023-9-15T08:07:15Z
2023-09-15T06:07:56Z,42.805,6.029,13.3048,4.60137,2470.777,2023-9-15T08:10:18Z
2023-09-15T06:10:59Z,42.805,6.029,13.3039,4.60131,2470.8,2023-9-15T08:13:21Z
2023-09-15T06:14:02Z,42.805,6.029,13.3041,4.60122,2470.763,2023-9-15T08:16:24Z
2023-09-15T06:17:05Z,42.805,6.029,13.3041,4.60146,2470.824,2023-9-15T08:19:27Z
2023-09-15T06:20:08Z,42.805,6.029,13.3057,4.60141,2470.796,2023-9-15T08:22:30Z
2023-09-15T06:23:11Z,42.805,6.029,13.3037,4.60142,2470.8,2023-9-15T08:25:33Z
2023-09-15T06:26:15Z,42.805,6.029,13.3033,4.60162,2470.787,2023-9-15T08:28:37Z
2023-09-15T06:29:18Z,42.805,6.029,13.3034,4.60131,2470.787,2023-9-15T08:31:40Z
2023-09-15T06:32:21Z,42.805,6.029,13.3039,4.60118,2470.81,2023-9-15T08:34:43Z
2023-09-15T06:35:24Z,42.805,6.029,13.3039,4.60127,2470.81,2023-9-15T08:37:46Z
2023-09-15T06:38:27Z,42.805,6.029,13.3030,4.60119,2470.787,2023-9-15T08:40:49Z
2023-09-15T06:41:30Z,42.805,6.029,13.3039,4.60127,2470.824,2023-9-15T08:43:52Z
2023-09-15T06:44:33Z,42.805,6.029,13.3039,4.60127,2470.787,2023-9-15T08:46:55Z
2023-09-15T06:47:36Z,42.805,6.029,13.3043,4.60138,2470.787,2023-9-15T08:49:58Z
2023-09-15T06:50:39Z,42.805,6.029,13.3042,4.60123,2470.81,2023-9-15T08:53:01Z
2023-09-15T06:53:42Z,42.805,6.029,13.3034,4.60132,2470.81,2023-9-15T08:56:04Z
2023-09-15T06:56:45Z,42.805,6.029,13.3034,4.60119,2470.787,2023-9-15T08:59:07Z
2023-09-15T06:59:49Z,42.805,6.029,13.3041,4.60132,2470.787,2023-9-15T09:02:11Z
2023-09-15T07:02:52Z,42.805,6.029,13.3036,4.60142,2470.824,2023-9-15T09:05:14Z
2023-09-15T07:05:55Z,42.805,6.029,13.3048,4.60157,2470.833,2023-9-15T09:08:17Z
2023-09-15T07:08:58Z,42.805,6.029,13.3038,4.60135,2470.81,2023-9-15T09:11:20Z
2023-09-15T07:12:01Z,42.805,6.029,13.3039,4.60140,2470.833,2023-9-15T09:14:23Z
2023-09-15T07:15:04Z,42.805,6.029,13.3037,4.60129,2470.787,2023-9-15T09:17:26Z
2023-09-15T07:18:07Z,42.805,6.029,13.3052,4.60147,2470.8,2023-9-15T09:20:29Z
2023-09-15T07:21:10Z,42.805,6.029,13.3041,4.60135,2470.833,2023-9-15T09:23:32Z
2023-09-15T07:24:13Z,42.805,6.029,13.3038,4.60157,2470.824,2023-9-15T09:26:35Z
2023-09-15T07:27:16Z,42.805,6.029,13.3043,4.60146,2470.787,2023-9-15T09:29:38Z
2023-09-15T07:30:19Z,42.805,6.029,13.3037,4.60133,2470.763,2023-9-15T09:32:41Z
2023-09-15T07:33:22Z,42.805,6.029,13.3038,4.60165,2470.847,2023-9-15T09:35:44Z
2023-09-15T07:36:26Z,42.805,6.029,13.3046,4.60132,2470.824,2023-9-15T09:38:48Z
2023-09-15T07:39:29Z,42.805,6.029,13.3036,4.60140,2470.787,2023-9-15T09:41:51Z
2023-09-15T07:42:32Z,42.805,6.029,13.3038,4.60138,2470.824,2023-9-15T09:44:54Z
2023-09-15T07:45:35Z,42.805,6.029,13.3041,4.60138,2470.824,2023-9-15T09:47:57Z
2023-09-15T07:48:38Z,42.805,6.029,13.3047,4.60153,2470.847,2023-9-15T09:51:00Z
2023-09-15T07:51:41Z,42.805,6.029,13.3036,4.60144,2470.871,2023-9-15T09:54:03Z
2023-09-15T07:54:44Z,42.805,6.029,13.3038,4.60132,2470.81,2023-9-15T09:57:06Z
2023-09-15T07:57:47Z,42.805,6.029,13.3041,4.60135,2470.824,2023-9-15T10:00:09Z
2023-09-15T08:00:50Z,42.805,6.029,13.3041,4.60144,2470.81,2023-9-15T10:03:12Z
2023-09-15T08:03:53Z,42.805,6.029,13.3036,4.60148,2470.8,2023-9-15T10:06:15Z
2023-09-15T08:06:56Z,42.805,6.029,13.3041,4.60145,2470.81,2023-9-15T10:09:18Z
2023-09-15T08:09:59Z,42.805,6.029,13.3050,4.60137,2470.787,2023-9-15T10:12:21Z
2023-09-15T08:13:03Z,42.805,6.029,13.3041,4.60151,2470.824,2023-9-15T10:15:25Z
2023-09-15T08:16:06Z,42.805,6.029,13.3054,4.60140,2470.8,2023-9-15T10:18:28Z
2023-09-15T08:19:09Z,42.805,6.029,13.3044,4.60147,2470.787,2023-9-15T10:21:31Z
2023-09-15T08:22:12Z,42.805,6.029,13.3041,4.60150,2470.787,2023-9-15T10:24:34Z
2023-09-15T08:25:15Z,42.805,6.029,13.3048,4.60157,2470.787,2023-9-15T10:27:37Z
2023-09-15T08:28:18Z,42.805,6.029,13.3036,4.60133,2470.763,2023-9-15T10:30:40Z
2023-09-15T08:31:21Z,42.805,6.029,13.3041,4.60140,2470.763,2023-9-15T10:33:43Z
2023-09-15T08:34:24Z,42.805,6.029,13.3043,4.60149,2470.763,2023-9-15T10:36:46Z
2023-09-15T08:37:27Z,42.805,6.029,13.3038,4.60138,2470.8,2023-9-15T10:39:49Z
2023-09-15T08:40:30Z,42.805,6.029,13.3033,4.60127,2470.74,2023-9-15T10:42:52Z
2023-09-15T08:43:33Z,42.805,6.029,13.3040,4.60151,2470.763,2023-9-15T10:45:55Z
2023-09-15T08:46:37Z,42.805,6.029,13.3040,4.60142,2470.787,2023-9-15T10:48:59Z
2023-09-15T08:49:40Z,42.805,6.029,13.3047,4.60140,2470.787,2023-9-15T10:52:02Z
2023-09-15T08:52:43Z,42.805,6.029,13.3043,4.60150,2470.75,2023-9-15T10:55:05Z
2023-09-15T08:55:46Z,42.805,6.029,13.3048,4.60138,2470.81,2023-9-15T10:58:08Z
2023-09-15T08:58:49Z,42.805,6.029,13.3037,4.60135,2470.763,2023-9-15T11:01:11Z
2023-09-15T09:01:52Z,42.805,6.029,13.3043,4.60151,2470.8,2023-9-15T11:04:14Z
2023-09-15T09:04:55Z,42.805,6.029,13.3042,4.60143,2470.787,2023-9-15T11:07:17Z
2023-09-15T09:07:58Z,42.805,6.029,13.3051,4.60144,2470.74,2023-9-15T11:10:20Z
2023-09-15T09:11:01Z,42.805,6.029,13.3041,4.60141,2470.777,2023-9-15T11:13:23Z
2023-09-15T09:14:04Z,42.805,6.029,13.3046,4.60155,2470.777,2023-9-15T11:16:26Z
2023-09-15T09:17:07Z,42.805,6.029,13.3050,4.60131,2470.824,2023-9-15T11:19:29Z
2023-09-15T09:20:11Z,42.805,6.029,13.3049,4.60133,2470.777,2023-9-15T11:22:32Z
2023-09-15T09:23:14Z,42.805,6.029,13.3043,4.60140,2470.763,2023-9-15T11:25:36Z
2023-09-15T09:26:17Z,42.805,6.029,13.3040,4.60148,2470.763,2023-9-15T11:28:39Z
2023-09-15T09:29:20Z,42.805,6.029,13.3038,4.60140,2470.754,2023-9-15T11:31:42Z
2023-09-15T09:32:23Z,42.805,6.029,13.3042,4.60141,2470.763,2023-9-15T11:34:45Z
2023-09-15T09:35:26Z,42.805,6.029,13.3057,4.60140,2470.787,2023-9-15T11:37:48Z
2023-09-15T09:38:29Z,42.805,6.029,13.3050,4.60152,2470.74,2023-9-15T11:40:51Z
2023-09-15T09:41:32Z,42.805,6.029,13.3038,4.60142,2470.777,2023-9-15T11:43:54Z
2023-09-15T09:44:35Z,42.805,6.029,13.3037,4.60148,2470.763,2023-9-15T11:46:57Z
2023-09-15T09:47:38Z,42.805,6.029,13.3047,4.60142,2470.74,2023-9-15T11:50:00Z
2023-09-15T09:50:41Z,42.805,6.029,13.3048,4.60128,2470.717,2023-9-15T11:53:03Z
2023-09-15T09:53:45Z,42.805,6.029,13.3047,4.60146,2470.717,2023-9-15T11:56:06Z
2023-09-15T09:56:48Z,42.805,6.029,13.3041,4.60137,2470.717,2023-9-15T11:59:10Z
2023-09-15T09:59:51Z,42.805,6.029,13.3043,4.60142,2470.73,2023-9-15T12:02:13Z
2023-09-15T10:02:54Z,42.805,6.029,13.3047,4.60142,2470.717,2023-9-15T12:05:16Z
2023-09-15T10:05:57Z,42.805,6.029,13.3048,4.60134,2470.73,2023-9-15T12:08:19Z
2023-09-15T10:09:00Z,42.805,6.029,13.3042,4.60149,2470.73,2023-9-15T12:11:22Z
2023-09-15T10:12:03Z,42.805,6.029,13.3039,4.60149,2470.74,2023-9-15T12:14:25Z
2023-09-15T10:15:06Z,42.805,6.029,13.3041,4.60137,2470.717,2023-9-15T12:17:28Z
2023-09-15T10:18:09Z,42.805,6.029,13.3039,4.60127,2470.74,2023-9-15T12:20:31Z
2023-09-15T10:21:12Z,42.805,6.029,13.3044,4.60119,2470.74,2023-9-15T12:23:34Z
2023-09-15T10:24:15Z,42.805,6.029,13.3046,4.60133,2470.717,2023-9-15T12:26:37Z
2023-09-15T10:27:18Z,42.805,6.029,13.3037,4.60157,2470.693,2023-9-15T12:29:40Z
2023-09-15T10:30:22Z,42.805,6.029,13.3053,4.60141,2470.717,2023-9-15T12:32:44Z
2023-09-15T10:33:25Z,42.805,6.029,13.3046,4.60155,2470.707,2023-9-15T12:35:47Z
2023-09-15T10:36:28Z,42.805,6.029,13.3044,4.60144,2470.693,2023-9-15T12:38:50Z
2023-09-15T10:39:31Z,42.805,6.029,13.3043,4.60155,2470.67,2023-9-15T12:41:53Z
2023-09-15T10:42:34Z,42.805,6.029,13.3035,4.60139,2470.707,2023-9-15T12:44:56Z
2023-09-15T10:45:37Z,42.805,6.029,13.3041,4.60150,2470.693,2023-9-15T12:47:59Z
2023-09-15T10:48:40Z,42.805,6.029,13.3048,4.60139,2470.707,2023-9-15T12:51:02Z
2023-09-15T10:51:43Z,42.805,6.029,13.3041,4.60135,2470.717,2023-9-15T12:54:05Z
2023-09-15T10:54:46Z,42.805,6.029,13.3044,4.60147,2470.707,2023-9-15T12:57:08Z
2023-09-15T10:57:49Z,42.805,6.029,13.3036,4.60123,2470.67,2023-9-15T13:00:11Z
2023-09-15T11:00:52Z,42.805,6.029,13.3048,4.60148,2470.707,2023-9-15T13:03:14Z
2023-09-15T11:03:56Z,42.805,6.029,13.3048,4.60140,2470.67,2023-9-15T13:06:18Z
2023-09-15T11:06:59Z,42.805,6.029,13.3045,4.60152,2470.693,2023-9-15T13:09:21Z
2023-09-15T11:10:02Z,42.805,6.029,13.3038,4.60147,2470.707,2023-9-15T13:12:24Z
2023-09-15T11:13:05Z,42.805,6.029,13.3045,4.60165,2470.693,2023-9-15T13:15:27Z
2023-09-15T11:16:08Z,42.805,6.029,13.3043,4.60146,2470.707,2023-9-15T13:18:30Z
2023-09-15T11:19:11Z,42.805,6.029,13.3048,4.60145,2470.67,2023-9-15T13:21:33Z
2023-09-15T11:22:14Z,42.805,6.029,13.3048,4.60137,2470.67,2023-9-15T13:24:36Z
2023-09-15T11:25:17Z,42.805,6.029,13.3032,4.60132,2470.67,2023-9-15T13:27:39Z
2023-09-15T11:28:20Z,42.805,6.029,13.3036,4.60117,2470.684,2023-9-15T13:30:42Z
2023-09-15T11:31:23Z,42.805,6.029,13.3039,4.60134,2470.67,2023-9-15T13:33:45Z
2023-09-15T11:34:26Z,42.805,6.029,13.3046,4.60132,2470.707,2023-9-15T13:36:48Z
2023-09-15T11:37:30Z,42.805,6.029,13.3036,4.60122,2470.684,2023-9-15T13:39:52Z
2023-09-15T11:40:33Z,42.805,6.029,13.3039,4.60150,2470.67,2023-9-15T13:42:55Z
2023-09-15T11:43:36Z,42.805,6.029,13.3034,4.60137,2470.656,2023-9-15T13:45:58Z
2023-09-15T11:46:39Z,42.805,6.029,13.3046,4.60140,2470.684,2023-9-15T13:49:01Z
2023-09-15T11:49:42Z,42.805,6.029,13.3054,4.60147,2470.646,2023-9-15T13:52:04Z
2023-09-15T11:52:45Z,42.805,6.029,13.3033,4.60135,2470.684,2023-9-15T13:55:07Z
2023-09-15T11:55:48Z,42.805,6.029,13.3038,4.60138,2470.637,2023-9-15T13:58:10Z
2023-09-15T11:58:51Z,42.805,6.029,13.3036,4.60144,2470.67,2023-9-15T14:01:13Z
2023-09-15T12:01:54Z,42.805,6.029,13.3045,4.60147,2470.646,2023-9-15T14:04:16Z
2023-09-15T12:04:57Z,42.805,6.029,13.3047,4.60134,2470.684,2023-9-15T14:07:19Z
2023-09-15T12:08:00Z,42.805,6.029,13.3041,4.60140,2470.646,2023-9-15T14:10:22Z
2023-09-15T12:11:04Z,42.805,6.029,13.3039,4.60145,2470.646,2023-9-15T14:13:25Z
2023-09-15T12:14:07Z,42.805,6.029,13.3039,4.60125,2470.624,2023-9-15T14:16:29Z
2023-09-15T12:17:10Z,42.805,6.029,13.3041,4.60150,2470.661,2023-9-15T14:19:32Z
2023-09-15T12:20:13Z,42.805,6.029,13.3038,4.60129,2470.633,2023-9-15T14:22:35Z
2023-09-15T12:23:16Z,42.805,6.029,13.3047,4.60149,2470.646,2023-9-15T14:25:38Z
2023-09-15T12:26:19Z,42.805,6.029,13.3047,4.60148,2470.693,2023-9-15T14:28:41Z
2023-09-15T12:29:22Z,42.805,6.029,13.3044,4.60121,2470.646,2023-9-15T14:31:44Z
2023-09-15T12:32:24Z,42.805,6.029,13.3041,4.60146,2470.661,2023-9-15T14:34:46Z
2023-09-15T12:35:27Z,42.805,6.029,13.3048,4.60137,2470.661,2023-9-15T14:37:49Z
2023-09-15T12:38:30Z,42.805,6.029,13.3048,4.60133,2470.646,2023-9-15T14:40:52Z
2023-09-15T12:41:33Z,42.805,6.029,13.3036,4.60131,2470.646,2023-9-15T14:43:55Z
2023-09-15T12:44:36Z,42.805,6.029,13.3039,4.60140,2470.661,2023-9-15T14:46:58Z
2023-09-15T12:47:39Z,42.805,6.029,13.3048,4.60130,2470.646,2023-9-15T14:50:01Z
2023-09-15T12:50:42Z,42.805,6.029,13.3041,4.60123,2470.67,2023-9-15T14:53:04Z
2023-09-15T12:53:45Z,42.805,6.029,13.3040,4.60137,2470.646,2023-9-15T14:56:07Z
2023-09-15T12:56:48Z,42.805,6.029,13.3034,4.60121,2470.646,2023-9-15T14:59:10Z
2023-09-15T12:59:51Z,42.805,6.029,13.3034,4.60127,2470.646,2023-9-15T15:02:13Z
2023-09-15T13:02:55Z,42.805,6.029,13.3048,4.60143,2470.684,2023-9-15T15:05:17Z
2023-09-15T13:05:58Z,42.805,6.029,13.3037,4.60129,2470.646,2023-9-15T15:08:20Z
2023-09-15T13:09:01Z,42.805,6.029,13.3040,4.60127,2470.67,2023-9-15T15:11:23Z
2023-09-15T13:12:04Z,42.805,6.029,13.3036,4.60120,2470.624,2023-9-15T15:14:26Z
2023-09-15T13:15:07Z,42.805,6.029,13.3035,4.60133,2470.646,2023-9-15T15:17:29Z
2023-09-15T13:18:10Z,42.805,6.029,13.3039,4.60132,2470.624,2023-9-15T15:20:32Z
2023-09-15T13:21:13Z,42.805,6.029,13.3037,4.60117,2470.624,2023-9-15T15:23:35Z
2023-09-15T13:24:16Z,42.805,6.029,13.3034,4.60122,2470.646,2023-9-15T15:26:38Z
2023-09-15T13:27:19Z,42.805,6.029,13.3034,4.60132,2470.646,2023-9-15T15:29:41Z
2023-09-15T13:30:22Z,42.805,6.029,13.3037,4.60132,2470.661,2023-9-15T15:32:44Z
2023-09-15T13:33:25Z,42.805,6.029,13.3046,4.60119,2470.637,2023-9-15T15:35:47Z
2023-09-15T13:36:29Z,42.805,6.029,13.3042,4.60127,2470.637,2023-9-15T15:38:51Z
2023-09-15T13:39:32Z,42.805,6.029,13.3041,4.60138,2470.624,2023-9-15T15:41:54Z
2023-09-15T13:42:35Z,42.805,6.029,13.3042,4.60137,2470.661,2023-9-15T15:44:57Z
2023-09-15T13:45:38Z,42.805,6.029,13.3035,4.60127,2470.6,2023-9-15T15:48:00Z
2023-09-15T13:48:41Z,42.805,6.029,13.3041,4.60143,2470.67,2023-9-15T15:51:03Z
2023-09-15T13:51:44Z,42.805,6.029,13.3044,4.60144,2470.637,2023-9-15T15:54:06Z
2023-09-15T13:54:47Z,42.805,6.029,13.3046,4.60141,2470.646,2023-9-15T15:57:09Z
2023-09-15T13:57:50Z,42.805,6.029,13.3034,4.60129,2470.646,2023-9-15T16:00:12Z
2023-09-15T14:00:53Z,42.805,6.029,13.3048,4.60134,2470.646,2023-9-15T16:03:15Z
2023-09-15T14:03:56Z,42.805,6.029,13.3043,4.60122,2470.624,2023-9-15T16:06:18Z
2023-09-15T14:06:59Z,42.805,6.029,13.3040,4.60117,2470.646,2023-9-15T16:09:21Z
2023-09-15T14:10:02Z,42.805,6.029,13.3044,4.60147,2470.614,2023-9-15T16:12:24Z
2023-09-15T14:13:06Z,42.805,6.029,13.3032,4.60160,2470.661,2023-9-15T16:15:28Z
2023-09-15T14:16:09Z,42.805,6.029,13.3036,4.60127,2470.624,2023-9-15T16:18:31Z
2023-09-15T14:19:12Z,42.805,6.029,13.3041,4.60135,2470.646,2023-9-15T16:21:34Z
2023-09-15T14:22:15Z,42.805,6.029,13.3058,4.60137,2470.67,2023-9-15T16:24:37Z
2023-09-15T14:25:18Z,42.805,6.029,13.3039,4.60138,2470.624,2023-9-15T16:27:40Z
2023-09-15T14:28:21Z,42.805,6.029,13.3035,4.60118,2470.624,2023-9-15T16:30:43Z
2023-09-15T14:31:23Z,42.805,6.029,13.3038,4.60127,2470.637,2023-9-15T16:33:45Z
2023-09-15T14:34:26Z,42.805,6.029,13.3039,4.60150,2470.684,2023-9-15T16:36:48Z
2023-09-15T14:37:29Z,42.805,6.029,13.3046,4.60148,2470.646,2023-9-15T16:39:51Z
2023-09-15T14:40:32Z,42.805,6.029,13.3038,4.60125,2470.684,2023-9-15T16:42:54Z
2023-09-15T14:43:35Z,42.805,6.029,13.3041,4.60133,2470.646,2023-9-15T16:45:57Z
2023-09-15T14:46:38Z,42.805,6.029,13.3040,4.60155,2470.624,2023-9-15T16:49:00Z
2023-09-15T14:49:41Z,42.805,6.029,13.3048,4.60140,2470.661,2023-9-15T16:52:03Z
2023-09-15T14:52:44Z,42.805,6.029,13.3051,4.60135,2470.624,2023-9-15T16:55:06Z
2023-09-15T14:55:47Z,42.805,6.029,13.3047,4.60135,2470.646,2023-9-15T16:58:09Z
2023-09-15T14:58:51Z,42.805,6.029,13.3046,4.60142,2470.67,2023-9-15T17:01:13Z
2023-09-15T15:01:54Z,42.805,6.029,13.3039,4.60137,2470.684,2023-9-15T17:04:16Z
2023-09-15T15:04:57Z,42.805,6.029,13.3036,4.60135,2470.646,2023-9-15T17:07:19Z
2023-09-15T15:08:00Z,42.805,6.029,13.3037,4.60147,2470.624,2023-9-15T17:10:22Z
2023-09-15T15:11:03Z,42.805,6.029,13.3042,4.60138,2470.67,2023-9-15T17:13:25Z